EW4713 Weather Reports


Display with metric or nautical units.
time (UTC)temp
F
wind
direction
speed
MPH
gust
MPH
rain 1hr
in
rain 24hr
in
rain mn
in
humidity
%
barometer
mb
20260903110332 61 315 0.0 3.0 0.00 0.00 0.00 95 1008.2
20260903105828 61 270 1.0 4.0 0.00 0.00 0.00 95 1008.2
20260903105332 60 286 0.0 5.0 0.00 0.00 0.00 95 1008.2
20260903104829 61 292 0.0 5.0 0.00 0.00 0.00 95 1008.5
20260903104331 60 294 2.0 4.0 0.00 0.00 0.00 96 1008.2
20260903103829 60 270 0.0 2.0 0.00 0.00 0.00 96 1008.2
20260903102829 60 270 0.0 4.0 0.00 0.00 0.00 96 1008.2
20260903101331 60 270 0.0 3.0 0.00 0.00 0.00 96 1008.5
20260903100830 60 270 0.0 4.0 0.00 0.00 0.00 96 1008.2
20260903100330 60 279 0.0 4.0 0.00 0.00 0.00 96 1008.5
20260903095829 60 260 2.0 3.0 0.00 0.00 0.00 96 1008.5
20260903095337 60 270 0.0 3.0 0.00 0.00 0.00 96 1008.5
20260903094829 60 289 2.0 2.0 0.00 0.00 0.00 97 1008.2
20260903093830 60 285 0.0 2.0 0.00 0.00 0.00 97 1008.5
20260903093332 60 262 1.0 2.0 0.00 0.00 0.00 97 1008.2
20260903092829 60 270 0.0 2.0 0.00 0.00 0.00 97 1008.5
20260903091828 60 270 0.0 3.0 0.00 0.00 0.00 97 1008.2
20260903091331 60 279 0.0 3.0 0.00 0.00 0.00 97 1008.2
20260903090829 60 287 2.0 4.0 0.00 0.00 0.00 97 1008.2
20260903090331 60 258 0.0 4.0 0.00 0.00 0.00 96 1008.2
20260903085829 60 278 0.0 4.0 0.00 0.00 0.00 96 1008.2
20260903084828 60 336 0.0 3.0 0.00 0.00 0.00 98 1008.2
20260903084330 60 294 0.0 2.0 0.00 0.00 0.00 98 1008.2
20260903083829 59 278 1.0 2.0 0.00 0.00 0.00 98 1008.2
20260903083332 60 303 2.0 2.0 0.00 0.00 0.00 98 1008.2
20260903082829 59 278 1.0 2.0 0.00 0.00 0.00 98 1008.2
20260903082331 60 278 0.0 2.0 0.00 0.00 0.00 98 1008.5
20260903081828 60 255 1.0 2.0 0.00 0.00 0.00 98 1008.5
20260903081333 60 306 0.0 2.0 0.00 0.00 0.00 98 1008.5
20260903080829 59 278 0.0 1.0 0.00 0.00 0.00 98 1009.0
20260903080332 60 286 0.0 1.0 0.00 0.00 0.00 97 1008.5
20260903075829 60 276 0.0 1.0 0.00 0.00 0.00 97 1008.5
20260903075331 60 334 0.0 1.0 0.00 0.00 0.00 97 1008.5
20260903074828 60 270 0.0 1.0 0.00 0.00 0.00 97 1008.5
20260903074331 60 270 0.0 2.0 0.00 0.00 0.00 96 1008.5
20260903073828 60 300 0.0 2.0 0.00 0.00 0.00 96 1008.5
20260903073331 60 276 2.0 2.0 0.00 0.00 0.00 96 1008.5
20260903072331 60 299 0.0 3.0 0.00 0.00 0.00 96 1009.0
20260903071827 60 270 1.0 2.0 0.00 0.00 0.00 97 1008.5
20260903071329 60 255 0.0 2.0 0.00 0.00 0.00 96 1008.5
20260903070826 60 261 0.0 2.0 0.00 0.00 0.00 96 1008.5
20260903070329 60 270 0.0 2.0 0.00 0.00 0.00 96 1008.5
20260903065825 60 270 1.0 1.0 0.00 0.00 0.00 96 1008.5
20260903065327 60 270 0.0 2.0 0.00 0.00 0.00 96 1009.0
20260903064825 60 270 0.0 2.0 0.00 0.00 0.00 96 1009.0
20260903064328 60 270 0.0 1.0 0.00 0.00 0.00 95 1009.0
20260903063824 61 285 0.0 1.0 0.00 0.00 0.00 95 1009.0
20260903063327 61 262 1.0 2.0 0.00 0.00 0.00 94 1008.5
20260903062324 60 262 0.0 2.0 0.00 0.00 0.00 97 1009.0
20260903061823 60 270 0.0 2.0 0.00 0.00 0.00 98 1009.0
20260903061326 60 264 0.0 2.0 0.00 0.00 0.00 98 1009.0
20260903060822 60 270 0.0 1.0 0.00 0.00 0.00 98 1009.0
20260903060325 60 246 1.0 2.0 0.00 0.00 0.00 99 1009.0
20260903055822 60 270 0.0 2.0 0.00 0.00 0.00 99 1009.0
20260903055329 60 270 0.0 2.0 0.00 0.00 0.00 99 1009.0
20260903054821 60 254 0.0 2.0 0.00 0.00 0.00 99 1009.3
20260903054322 60 270 0.0 1.0 0.00 0.00 0.00 99 1009.3
20260903053820 60 270 0.0 1.0 0.00 0.00 0.00 99 1009.0
20260903053323 60 255 0.0 1.0 0.00 0.00 0.00 99 1009.0
20260903052325 60 261 0.0 0.0 0.00 0.00 0.00 99 1009.3
20260903051820 60 261 0.0 0.0 0.00 0.00 0.00 98 1009.3
20260903051322 60 261 0.0 0.0 0.00 0.00 0.00 98 1009.3
20260903050819 60 261 0.0 0.0 0.00 0.00 0.00 98 1009.7
20260903045819 60 261 0.0 0.0 0.00 0.00 0.00 98 1009.0
20260903044322 60 261 0.0 0.0 0.00 0.00 0.00 98 1009.3
20260903043817 60 261 0.0 0.0 0.00 0.00 0.00 98 1009.3
20260903043322 60 261 0.0 0.0 0.00 0.00 0.00 97 1009.3
20260903042816 60 261 0.0 0.0 0.00 0.00 0.00 97 1009.7
20260903042320 60 261 0.0 0.0 0.00 0.00 0.00 97 1009.3
20260903041816 60 261 0.0 0.0 0.00 0.00 0.00 97 1009.7
20260903041320 60 261 0.0 0.0 0.00 0.00 0.00 96 1009.7
20260903040815 60 188 0.0 0.0 0.00 0.00 0.00 96 1009.3
20260903040320 60 188 0.0 0.0 0.00 0.00 0.00 96 1009.7
20260903035814 60 188 0.0 0.0 0.00 0.00 0.00 96 1009.7
20260903035319 61 188 0.0 0.0 0.00 0.00 0.00 96 1009.7
20260903034814 61 188 0.0 0.0 0.00 0.00 0.00 95 1009.7
20260903034320 61 188 0.0 0.0 0.00 0.00 0.00 95 1009.7
20260903033813 61 188 0.0 0.0 0.00 0.00 0.00 95 1009.7
20260903033322 61 188 0.0 0.0 0.00 0.00 0.00 95 1009.3
20260903032813 61 188 0.0 0.0 0.00 0.00 0.00 95 1009.7
20260903032318 61 188 0.0 0.0 0.00 0.00 0.00 94 1009.3
20260903031813 61 188 0.0 0.0 0.00 0.00 0.00 94 1009.7
20260903031315 62 188 0.0 0.0 0.00 0.00 0.00 94 1009.7
20260903030315 62 188 0.0 0.0 0.00 0.00 0.00 93 1009.7
20260903025811 62 188 0.0 0.0 0.00 0.00 0.00 93 1009.7
20260903025314 62 188 0.0 0.0 0.00 0.00 0.00 93 1009.3
20260903024810 62 188 0.0 0.0 0.00 0.00 0.00 92 1009.7
20260903023314 63 188 0.0 0.0 0.00 0.00 0.00 91 1009.7
20260903022809 63 188 0.0 0.0 0.00 0.00 0.00 91 1009.3
20260903022310 63 188 0.0 0.0 0.00 0.00 0.00 90 1009.3
20260903021808 63 188 0.0 0.0 0.00 0.00 0.00 90 1009.7
20260903021311 63 188 0.0 0.0 0.00 0.00 0.00 90 1009.7
20260903020808 63 188 0.0 0.0 0.00 0.00 0.00 89 1009.3
20260903015808 64 188 0.0 0.0 0.00 0.00 0.00 88 1009.7
20260903014807 64 188 0.0 0.0 0.00 0.00 0.00 87 1009.3
20260903014309 64 188 0.0 0.0 0.00 0.00 0.00 87 1009.3
20260903013309 65 188 0.0 0.0 0.00 0.00 0.00 85 1009.3
20260903012308 65 188 0.0 0.0 0.00 0.00 0.00 82 1009.0
20260903011805 65 188 0.0 0.0 0.00 0.00 0.00 82 1009.0
20260903011308 66 188 0.0 0.0 0.00 0.00 0.00 81 1009.3
20260903010804 66 188 0.0 0.0 0.00 0.00 0.00 80 1009.0
20260903005804 67 246 0.0 0.0 0.00 0.00 0.00 80 1009.0
20260903005306 67 246 0.0 0.0 0.00 0.00 0.00 78 1009.0
20260903004803 68 246 0.0 0.0 0.00 0.00 0.00 78 1008.5
20260903004303 68 246 0.0 1.0 0.00 0.00 0.00 77 1008.5
20260903003801 69 246 0.0 1.0 0.00 0.00 0.00 75 1008.5
20260903002801 70 255 0.0 0.0 0.00 0.00 0.00 73 1008.5
20260903002306 71 255 0.0 0.0 0.00 0.00 0.00 72 1008.5
20260903001801 71 255 0.0 0.0 0.00 0.00 0.00 69 1008.5
20260903001304 71 255 0.0 0.0 0.00 0.00 0.00 71 1008.5
20260903000800 72 255 0.0 0.0 0.00 0.00 0.00 68 1008.5
20260903000303 73 255 0.0 1.0 0.00 0.00 0.00 66 1008.5
20260902235800 73 255 0.0 1.0 0.00 0.00 0.00 65 1008.5
20260902235301 74 254 0.0 1.0 0.00 0.00 0.00 65 1008.5
20260902234800 75 270 0.0 0.0 0.00 0.00 0.00 62 1009.0
20260902234259 77 320 0.0 0.0 0.00 0.00 0.00 60 1008.5
20260902233758 79 346 0.0 1.0 0.00 0.00 0.00 56 1009.0
20260902232758 77 254 0.0 2.0 0.00 0.00 0.00 61 1008.5
20260902232259 77 297 0.0 2.0 0.00 0.00 0.00 61 1009.0
20260902231259 76 255 0.0 2.0 0.00 0.00 0.00 60 1009.0
20260902230757 76 307 2.0 2.0 0.00 0.00 0.00 59 1009.0
20260902230257 77 278 0.0 2.0 0.00 0.00 0.00 58 1009.0
20260902225756 77 261 0.0 2.0 0.00 0.00 0.00 59 1009.0
20260902225258 76 255 1.0 2.0 0.00 0.00 0.00 58 1009.0
20260902224756 77 325 1.0 3.0 0.00 0.00 0.00 55 1009.0
20260902224258 78 270 0.0 3.0 0.00 0.00 0.00 55 1009.0
20260902223755 79 165 0.0 3.0 0.00 0.00 0.00 56 1009.0
20260902223256 78 270 0.0 4.0 0.00 0.00 0.00 55 1008.5
20260902222755 78 274 0.0 4.0 0.00 0.00 0.00 57 1008.5
20260902222256 78 278 0.0 5.0 0.00 0.00 0.00 56 1009.0
20260902221754 78 319 2.0 5.0 0.00 0.00 0.00 55 1008.5
20260902221255 78 332 2.0 4.0 0.00 0.00 0.00 53 1009.0
20260902220754 82 258 2.0 2.0 0.00 0.00 0.00 49 1008.5
20260902220255 79 325 0.0 4.0 0.00 0.00 0.00 53 1009.0
20260902215753 79 307 2.0 4.0 0.00 0.00 0.00 53 1009.0
20260902215253 79 248 2.0 3.0 0.00 0.00 0.00 53 1009.0
20260902214753 81 254 0.0 3.0 0.00 0.00 0.00 50 1009.0
20260902214253 78 322 2.0 5.0 0.00 0.00 0.00 54 1009.0
20260902213752 79 258 4.0 5.0 0.00 0.00 0.00 52 1009.3
20260902213252 80 344 0.0 4.0 0.00 0.00 0.00 53 1009.0
20260902212751 79 344 4.0 4.0 0.00 0.00 0.00 50 1009.0
20260902212252 79 198 2.0 3.0 0.00 0.00 0.00 51 1009.3
20260902211751 79 188 0.0 4.0 0.00 0.00 0.00 52 1009.0
20260902211252 78 289 1.0 5.0 0.00 0.00 0.00 51 1009.0
20260902210750 78 286 0.0 5.0 0.00 0.00 0.00 56 1009.0
20260902210251 79 294 0.0 4.0 0.00 0.00 0.00 54 1009.0
20260902205749 79 277 0.0 4.0 0.00 0.00 0.00 55 1009.0
20260902205250 81 237 0.0 2.0 0.00 0.00 0.00 53 1009.3
20260902204749 80 341 2.0 5.0 0.00 0.00 0.00 54 1009.3
20260902204250 78 252 2.0 4.0 0.00 0.00 0.00 54 1009.3
20260902203748 79 270 2.0 4.0 0.00 0.00 0.00 57 1009.3
20260902203250 79 301 0.0 4.0 0.00 0.00 0.00 53 1009.7
20260902202748 81 257 0.0 3.0 0.00 0.00 0.00 55 1009.3
20260902201746 78 283 2.0 6.0 0.00 0.00 0.00 57 1009.3
20260902201248 77 288 4.0 7.0 0.00 0.00 0.00 56 1009.7
20260902200746 78 278 0.0 7.0 0.00 0.00 0.00 56 1009.3
20260902195745 78 270 2.0 4.0 0.00 0.00 0.00 55 1009.7
20260902195247 77 300 1.0 4.0 0.00 0.00 0.00 55 1009.7
20260902194745 77 315 2.0 4.0 0.00 0.00 0.00 57 1009.3
20260902194246 76 285 0.0 4.0 0.00 0.00 0.00 57 1009.7
20260902193744 80 29 0.0 3.0 0.00 0.00 0.00 54 1009.7
20260902193246 79 303 2.0 9.0 0.00 0.00 0.00 56 1009.7
20260902192245 75 321 4.0 6.0 0.00 0.00 0.00 61 1009.7
20260902191743 76 236 2.0 6.0 0.00 0.00 0.00 59 1009.7
20260902191243 79 185 0.0 3.0 0.00 0.00 0.00 56 1009.7
20260902190244 79 325 0.0 5.0 0.00 0.00 0.00 55 1009.7
20260902185742 77 186 0.0 5.0 0.00 0.00 0.00 59 1009.7
20260902185242 76 270 1.0 4.0 0.00 0.00 0.00 56 1010.0
20260902184742 76 304 2.0 4.0 0.00 0.00 0.00 60 1010.0
20260902184243 76 287 4.0 4.0 0.00 0.00 0.00 57 1009.7
20260902183741 76 261 0.0 4.0 0.00 0.00 0.00 60 1009.7
20260902183241 74 270 1.0 3.0 0.00 0.00 0.00 62 1010.0
20260902182741 76 294 0.0 2.0 0.00 0.00 0.00 60 1009.7
20260902182241 76 188 0.0 2.0 0.00 0.00 0.00 62 1009.7
20260902181740 75 265 2.0 3.0 0.00 0.00 0.00 62 1009.7
20260902181241 75 65 2.0 3.0 0.00 0.00 0.00 64 1010.0
20260902175739 74 334 3.0 7.0 0.00 0.00 0.00 63 1010.0
20260902175240 73 286 4.0 7.0 0.00 0.00 0.00 63 1010.0
20260902174737 74 277 1.0 4.0 0.00 0.00 0.00 61 1010.0
20260902174239 75 348 2.0 4.0 0.00 0.00 0.00 63 1010.3
20260902173737 75 0 1.0 4.0 0.00 0.00 0.00 61 1010.3
20260902172737 75 243 0.0 2.0 0.00 0.00 0.00 58 1010.3
20260902172237 75 334 0.0 2.0 0.00 0.00 0.00 60 1010.3
20260902171736 74 83 0.0 2.0 0.00 0.00 0.00 62 1010.0
20260902171238 74 255 0.0 3.0 0.00 0.00 0.00 63 1010.3
20260902170237 73 312 2.0 3.0 0.00 0.00 0.00 61 1010.3
20260902164735 73 246 1.0 1.0 0.00 0.00 0.00 65 1010.3
20260902164236 73 26 0.0 4.0 0.00 0.00 0.00 67 1010.3
20260902163733 72 294 0.0 4.0 0.00 0.00 0.00 72 1010.3
20260902163235 73 270 0.0 2.0 0.00 0.00 0.00 68 1010.3
20260902162234 72 165 0.0 2.0 0.00 0.00 0.00 70 1010.3
20260902160732 70 23 2.0 2.0 0.00 0.00 0.00 71 1010.3
20260902160233 70 261 0.0 3.0 0.00 0.00 0.00 76 1010.3
20260902155732 71 74 0.0 3.0 0.00 0.00 0.00 75 1010.3
20260902155233 71 354 0.0 3.0 0.00 0.00 0.00 76 1010.3
20260902154231 70 84 0.0 2.0 0.00 0.00 0.00 75 1010.3
20260902153231 69 0 0.0 2.0 0.00 0.00 0.00 75 1010.3
20260902152231 69 328 2.0 2.0 0.00 0.00 0.00 76 1010.3
20260902151729 70 255 0.0 2.0 0.00 0.00 0.00 77 1010.3
20260902151230 70 240 0.0 1.0 0.00 0.00 0.00 82 1010.3
20260902150728 69 209 0.0 3.0 0.00 0.00 0.00 77 1010.3
20260902150230 69 172 0.0 3.0 0.00 0.00 0.00 77 1010.3
20260902145729 70 270 0.0 2.0 0.00 0.00 0.00 77 1010.3
20260902145227 69 216 2.0 2.0 0.00 0.00 0.00 76 1010.3
20260902144727 70 261 0.0 1.0 0.00 0.00 0.00 76 1010.3
20260902144227 69 157 0.0 2.0 0.00 0.00 0.00 78 1010.3
20260902143727 72 188 0.0 2.0 0.00 0.00 0.00 75 1010.3
20260902143228 72 180 0.0 3.0 0.00 0.00 0.00 77 1010.3
20260902142725 71 289 2.0 3.0 0.00 0.00 0.00 74 1010.3
20260902142226 71 270 0.0 3.0 0.00 0.00 0.00 76 1010.3
20260902141227 72 294 0.0 2.0 0.00 0.00 0.00 74 1010.3
20260902140724 70 90 0.0 1.0 0.00 0.00 0.00 80 1010.3
20260902140226 72 195 0.0 1.0 0.00 0.00 0.00 77 1010.3
20260902135724 71 203 0.0 1.0 0.00 0.00 0.00 77 1010.3
20260902135225 70 206 0.0 1.0 0.00 0.00 0.00 79 1010.3
20260902134724 69 90 0.0 0.0 0.00 0.00 0.00 81 1010.3
20260902134225 68 90 0.0 0.0 0.00 0.00 0.00 86 1010.3
20260902133723 66 90 0.0 0.0 0.00 0.00 0.00 92 1010.3
20260902133224 63 90 0.0 0.0 0.00 0.00 0.00 99 1010.7
20260902131722 63 90 0.0 0.0 0.00 0.00 0.00 99 1010.3
20260902130721 55 90 0.0 1.0 0.00 0.00 0.00 99 1010.3
20260902130222 55 90 0.0 1.0 0.00 0.00 0.00 99 1010.3
20260902125720 54 90 0.0 1.0 0.00 0.00 0.00 99 1010.3
20260902125221 54 74 0.0 1.0 0.00 0.00 0.00 99 1010.7
20260902124720 53 82 0.0 0.0 0.00 0.00 0.00 99 1010.3
20260902123719 52 82 0.0 0.0 0.00 0.00 0.00 99 1010.3
20260902123220 52 82 0.0 0.0 0.00 0.00 0.00 99 1010.3
20260902122719 52 82 0.0 0.0 0.00 0.00 0.00 99 1010.3
20260902122220 52 82 0.0 0.0 0.00 0.00 0.00 99 1010.3
20260902121718 52 82 0.0 0.0 0.00 0.00 0.00 99 1010.0
20260902121219 51 82 0.0 0.0 0.00 0.00 0.00 99 1010.0
20260902120717 51 82 0.0 1.0 0.00 0.00 0.00 99 1010.0
20260902120219 51 81 0.0 0.0 0.00 0.00 0.00 99 1010.0
20260902115717 51 74 0.0 0.0 0.00 0.00 0.00 99 1010.0
20260902115218 51 74 0.0 1.0 0.00 0.00 0.00 99 1010.0
20260902114218 51 106 0.0 0.0 0.00 0.00 0.00 99 1010.3
20260902113716 51 106 0.0 0.0 0.00 0.00 0.00 99 1010.0
20260902113217 51 106 0.0 0.0 0.00 0.00 0.00 99 1010.3
20260902112203 52 106 0.0 0.0 0.00 0.00 0.00 99 1010.0
20260902111701 52 106 0.0 0.0 0.00 0.00 0.00 99 1009.7
20260902111202 52 106 0.0 0.0 0.00 0.00 0.00 99 1009.7
20260902110700 52 106 0.0 0.0 0.00 0.00 0.00 99 1009.7